Regional Weather Roundup
Issued by NWS

Home | Current Version | Previous Version | Graphics & Text | Print | Product List | Glossary On
Versions: 1 2 3 4 5 6 7 8 9 10 11 12 13 14 15 16 17 18 19 20 21 22 23 24 25 26 27 28 29 30 31 32 33 34 35 36 37 38 39 40 41 42 43 44 45 46 47 48 49 50
099
ASUS45 KCYS 260810
RWRWY

WYOMING REGIONAL WEATHER ROUNDUP
NATIONAL WEATHER SERVICE CHEYENNE WY
200 AM MDT TUE SEP 26 2017

NOTE:  "FAIR" INDICATES FEW OR NO CLOUDS BELOW 12,000 FEET
WITH NO SIGNIFICANT WEATHER AND/OR OBSTRUCTIONS TO VISIBILITY.

WYZ001-260900-
YELLOWSTONE NATIONAL PARK

CITY           SKY/WX    TMP DP  RH WIND       PRES   REMARKS
LK YELLOWSTONE NOT AVBL
W YELLOWSTONE  NOT AVBL

$$
WYZ002>013-054>058-071-098>099-260900-
NORTHERN WYOMING

CITY           SKY/WX    TMP DP  RH WIND       PRES   REMARKS
JACKSON        CLOUDY    31  29  92 CALM      30.20R
CODY           CLOUDY    43  34  70 CALM      30.12S
GREYBULL       CLOUDY    44  39  82 SE5       30.11R
WORLAND        FAIR      40  39  97 SE9       30.11R WCI  34
SHERIDAN       FAIR      34  33  96 CALM      30.07S
BUFFALO        FAIR      36  28  73 W7        30.10R WCI  30
GILLETTE       FAIR      43  40  89 SW12      30.09S
HULETT         CLOUDY    36  36 100 S5        30.10S WCI  32
NEWCASTLE      PTSUNNY   43  41  93 E12G18    30.11F

$$
WYZ014>020-022>026-101>103-260900-
CENTRAL WYOMING

CITY           SKY/WX    TMP DP  RH WIND       PRES   REMARKS
BIG PINEY      FAIR      27  23  85 CALM      30.20R
PINEDALE       FAIR      30  27  86 W5        30.20R WCI  25
DUBOIS         FAIR      32  27  80 NW10      30.17R WCI  24
LANDER         FAIR      39  35  86 CALM      30.14S
RIVERTON       FAIR      35  34  96 W7        30.15S WCI  29
CASPER         MOCLDY    35  33  92 SW8       30.14R WCI  29
DOUGLAS        FAIR      35  33  92 CALM      30.14R

$$
WYZ021-027>030-104>119-260900-
SOUTHERN WYOMING

CITY           SKY/WX    TMP DP  RH WIND       PRES   REMARKS
EVANSTON       FAIR      33  30  88 E7        30.19S WCI  27
FORT BRIDGER   FAIR      39  31  71 CALM      30.22S
ROCK SPRINGS   FAIR      33  28  81 S5        30.19R WCI  29
DIXON          FAIR      32  28  82 E5        30.22S WCI  28
RAWLINS        FAIR      36  30  79 NW5       30.17R WCI  32
SARATOGA       FAIR      30  30 100 SE3       30.19S
LARAMIE        FAIR      29  27  92 SE7       30.17R WCI  22
CHEYENNE       CLOUDY    42  39  89 S8        30.18R
TORRINGTON     FAIR      38  38 100 E9        30.12S WCI  31
PINE BLUFFS    FAIR      37  37 100 MISG      30.17R

$$




USA.gov is the U.S. government's official web portal to all federal, state and local government web resources and services.